[TLELIST] Archives

 

[list_settings.list_name] Current TLEs

July 29th 2012 PDT

HST 1 20580U 90037B 12211.23459299 .00000721 00000-0 40339-4 0 437 2 20580 028.4698 228.3589 0003650 146.6292 213.4553 15.02644272 21060 ISS (ZARYA) 1 25544U 98067A 12211.15468926 .00004282 00000-0 70309-4 0 167 2 25544 051.6438 272.6994 0000713 347.0655 104.9660 15.54747043784543 CXO 1 25867U 99040B 12211.25940682 -.00000872 00000-0 00000+0 0 7707 2 25867 072.9002 001.5812 8746266 278.1820 000.3990 00.37800517 9319 ____________________________________________________________________ These 2-Line ...Continue Reading

[list_settings.list_name] Current TLEs

July 28th 2012 PDT

HST 1 20580U 90037B 12209.24203824 .00000717 00000-0 40080-4 0 423 2 20580 028.4702 241.3985 0003623 125.6048 234.4893 15.02641988 20764 ISS (ZARYA) 1 25544U 98067A 12210.50845507 .00004337 00000-0 71139-4 0 128 2 25544 051.6430 275.9250 0000846 346.2555 086.3525 15.54740986784444 CXO 1 25867U 99040B 12211.25890879 -.00000872 00000-0 00000+0 0 7697 2 25867 072.9001 001.5813 8746268 278.1819 000.3300 00.37800416 9312 ____________________________________________________________________ These 2-Line ...Continue Reading

[list_settings.list_name] Current TLEs

July 27th 2012 PDT

HST 1 20580U 90037B 12209.24203824 .00000717 00000-0 40080-4 0 423 2 20580 028.4702 241.3985 0003623 125.6048 234.4893 15.02641988 20764 ISS (ZARYA) 1 25544U 98067A 12209.22631271 .00005511 00000-0 88481-4 0 51 2 25544 051.6430 282.3233 0000765 338.3697 113.2782 15.54732550784247 CXO 1 25867U 99040B 12211.25890879 -.00000872 00000-0 00000+0 0 7697 2 25867 072.9001 001.5813 8746268 278.1819 000.3300 00.37800416 9312 ____________________________________________________________________ These 2-Line ...Continue Reading

[list_settings.list_name] Current TLEs

July 26th 2012 PDT

HST 1 20580U 90037B 12207.24947860 .00000660 00000-0 35872-4 0 415 2 20580 028.4705 254.4395 0003502 108.6935 251.4009 15.02639521 20464 ISS (ZARYA) 1 25544U 98067A 12208.45385220 .00005444 00000-0 87524-4 0 9999 2 25544 051.6424 286.1782 0000680 336.0695 109.2327 15.54722928784125 CXO 1 25867U 99040B 12208.61485289 -.00000917 +00000-0 +00000-0 0 00018 2 25867 072.8763 001.7809 8745567 278.1609 000.5139 00.37805867014831 ____________________________________________________________________ These 2-Line ...Continue Reading

[list_settings.list_name] Current TLEs

July 25th 2012 PDT

HST 1 20580U 90037B 12207.24947860 .00000660 00000-0 35872-4 0 415 2 20580 028.4705 254.4395 0003502 108.6935 251.4009 15.02639521 20464 ISS (ZARYA) 1 25544U 98067A 12207.23435663 .00012087 00000-0 18559-3 0 9948 2 25544 051.6432 292.2604 0000709 323.9012 131.3736 15.54710176783935 CXO 1 25867U 99040B 12205.96897480 -.00000752 +00000-0 +00000-0 0 00010 2 25867 072.8508 001.9880 8742667 278.1532 000.3913 00.37803678014827 ____________________________________________________________________ These 2-Line ...Continue Reading

[list_settings.list_name] Current TLEs

July 24th 2012 PDT

HST 1 20580U 90037B 12206.18677977 .00000780 00000-0 44716-4 0 405 2 20580 028.4705 261.3967 0003458 097.8827 262.2173 15.02639063 20301 ISS (ZARYA) 1 25544U 98067A 12206.39715759 .00010329 00000-0 15983-3 0 9890 2 25544 051.6428 296.4378 0000804 298.1622 148.2514 15.54682059783805 CXO 1 25867U 99040B 12208.61535668 -.00000917 00000-0 00000+0 0 7684 2 25867 072.8763 001.7808 8745575 278.1609 000.5824 00.37805317 9306 ____________________________________________________________________ These 2-Line ...Continue Reading

[list_settings.list_name] Current TLEs

July 23rd 2012 PDT

HST 1 20580U 90037B 12203.59644602 .00000809 00000-0 46836-4 0 391 2 20580 028.4715 278.3507 0003368 070.8943 289.2026 15.02635995 19911 ISS (ZARYA) 1 25544U 98067A 12205.24151370 .00007881 00000-0 12383-3 0 9829 2 25544 051.6441 302.2032 0000555 287.6867 166.4898 15.54646886783625 CXO 1 25867U 99040B 12205.97087020 -.00000752 +00000-0 +00000-0 0 00012 2 25867 072.8509 001.9878 8742670 278.1531 000.6492 00.37803444014824 ____________________________________________________________________ These 2-Line ...Continue Reading

[list_settings.list_name] Current TLEs

July 22nd 2012 PDT

HST 1 20580U 90037B 12203.59644602 .00000809 00000-0 46836-4 0 391 2 20580 028.4715 278.3507 0003368 070.8943 289.2026 15.02635995 19911 ISS (ZARYA) 1 25544U 98067A 12204.39700308 .00007957 00000-0 12500-3 0 9774 2 25544 051.6434 306.4170 0000499 283.3125 121.2550 15.54633057783498 CXO 1 25867U 99040B 12205.97128815 -.00000752 00000-0 00000+0 0 7678 2 25867 072.8509 001.9875 8742670 278.1531 000.7062 00.37803596 9298 ____________________________________________________________________ These 2-Line ...Continue Reading

[list_settings.list_name] Current TLEs

July 21st 2012 PDT

HST 1 20580U 90037B 12202.66657902 .00000865 00000-0 50944-4 0 381 2 20580 028.4717 284.4368 0003401 059.5297 300.5528 15.02635011 19777 ISS (ZARYA) 1 25544U 98067A 12203.17999377 .00007997 00000-0 12570-3 0 9697 2 25544 051.6442 312.4884 0000569 271.6742 157.2108 15.54612721783302 CXO 1 25867U 99040B 12205.97128815 -.00000752 00000-0 00000+0 0 7678 2 25867 072.8509 001.9875 8742670 278.1531 000.7062 00.37803596 9298 ____________________________________________________________________ These 2-Line ...Continue Reading

[list_settings.list_name] Current TLEs

July 20th 2012 PDT

HST 1 20580U 90037B 12201.67029279 .00001482 00000-0 96176-4 0 373 2 20580 028.4717 290.9586 0003310 047.7488 312.3240 15.02635383 19629 ISS (ZARYA) 1 25544U 98067A 12202.41914387 .00007573 00000-0 11948-3 0 9644 2 25544 051.6438 316.2845 0000591 260.3888 227.5120 15.54598768783182 CXO 1 25867U 99040B 12203.32586524 -.00000676 00000-0 00000+0 0 7664 2 25867 072.8259 002.1482 8741335 278.1814 000.5365 00.37798347 9288 ____________________________________________________________________ These 2-Line ...Continue Reading
  • This mailing list is a public mailing list - anyone may join or leave, at any time.
  • This mailing list is announce-only.

International Space Station (ISS) / Hubble Space Telescope (HST) / Chandra X-Ray Observatory Orbital Data via EMAIL

Privacy Policy:

Private list